Regional Weather Roundup
Issued by NWS

Home | Current Version | Previous Version | Graphics & Text | Print | Product List | Glossary On
Versions: 1 2 3 4 5 6 7 8 9 10 11 12 13 14 15 16 17 18 19 20 21 22 23 24 25 26 27 28 29 30 31 32 33 34 35 36 37 38 39 40 41 42 43 44 45 46 47 48 49 50
000
ASUS43 KLSX 262207
RWRMO

WEATHER SUMMARY FOR MISSOURI
NATIONAL WEATHER SERVICE SPRINGFIELD MO
400 PM CST SUN FEB 26 2017

NOTE: "FAIR" INDICATES FEW OR NO CLOUDS BELOW 12,000 FEET WITH NO
       SIGNIFICANT WEATHER AND/OR OBSTRUCTIONS TO VISIBILITY.
       CURRENT SKY AND/OR WEATHER CONDITIONS ARE NOT AVAILABLE FOR
       CHILLICOTHE AND FARMINGTON.

MOZ001>031-035>038-043-044-053-054-262300-
...NORTHERN AND WESTERN MISSOURI...

CITY           SKY/WX    TMP DP  RH WIND       PRES   REMARKS
KANSAS CTY INT PTSUNNY   50  24  36 S7        29.94S
KANSAS C DTWN  MOSUNNY   53  24  32 S8        29.94F
LEE`S SUMMIT   MOSUNNY   49  27  42 S10       29.96S
ST JOSEPH      MOSUNNY   53  24  32 SW12      29.93S
CHILLICOTHE      N/A     51  25  36 S12G20    29.96S
KIRKSVILLE     PTSUNNY   48  25  40 SW13G21   29.96S

$$
MOZ066>068-077>081-088>096-101>105-262300-
...SOUTHWEST MISSOURI...

CITY           SKY/WX    TMP DP  RH WIND       PRES   REMARKS
SPRINGFIELD    CLOUDY    41  34  76 E8        29.97F
JOPLIN         CLOUDY    43  35  73 E10       29.96S
BRANSON        CLOUDY    48  25  40 E9        29.97F

$$
MOZ032>034-039>042-045>050-055>058-069>072-262300-
...CENTRAL MISSOURI...

CITY           SKY/WX    TMP DP  RH WIND       PRES   REMARKS
COLUMBIA       PTSUNNY   45  28  51 S15       30.02S
JEFFERSON CITY CLOUDY    43  34  70 S9        30.05R
ROLLA          LGT RAIN  40  35  83 S13       30.03F
SEDALIA        CLOUDY    45  35  68 S12       30.01S
WHITEMAN AFB   PTSUNNY   46  36  68 S12       29.97F
WARRENSBURG    MOSUNNY   46  34  61 SE7G16    29.98S
OSAGE BEACH    LGT RAIN  39  36  89 SE7       30.04F

$$
MOZ051-052-059>065-262300-
...EAST CENTRAL MISSOURI...

CITY           SKY/WX    TMP DP  RH WIND       PRES   REMARKS
ST LOUIS INTL  CLOUDY    49  19  30 SW15G25   30.08R
SPIRIT OF STL  CLOUDY    48  22  35 SW6       30.07R
ST CHARLES     CLOUDY    48  19  31 S20G26    30.06F

$$
MOZ072>076-082>087-097>100-106>115-262300-
...SOUTH CENTRAL AND SOUTHEAST MISSOURI...

CITY           SKY/WX    TMP DP  RH WIND       PRES   REMARKS
CAPE GIRARDEAU CLOUDY    50  20  30 S3        30.12S
FARMINGTON     LGT RAIN  42  29  59 SW9       30.10S
POPLAR BLUFF   CLOUDY    51  24  34 S7        30.09F
WEST PLAINS    CLOUDY    48  21  34 SE6       30.03F

$$



USA.gov is the U.S. government's official web portal to all federal, state and local government web resources and services.